Lexington, KY

5:58 PM EST on November 24, 2017 (GMT -0500)
Blue Grass

Weather History for KLEX - March, 2013

Change the Weather History Date:

Sunday, March 10, 2013

  Actual Average Record
Temperature  
Mean Temperature 61 °F 44 °F  
Max Temperature 71 °F 53 °F 77 °F (1973)
Min Temperature 51 °F 34 °F 11 °F (1932)
Degree Days  
Heating Degree Days 4 21  
Month to date heating degree days 274 228  
Since 1 July heating degree days 3782 3799  
Cooling Degree Days 0 0  
Month to date cooling degree days 0 0  
Year to date cooling degree days 0 0  
Growing Degree Days 11 (Base 50)    
Moisture  
Dew Point 32 °F    
Average Humidity 34    
Maximum Humidity 44    
Minimum Humidity 23    
Precipitation  
Precipitation T in 0.12 in 2.01 in (1952)
Month to date precipitation 0.87 1.24  
Year to date precipitation 6.85 7.64  
Snow  
Snow 0.00 in 0.10 in 5.40 in (1975)
Month to date snowfall 2.5 0.6  
Since 1 July snowfall 11.0 11.9  
Snow Depth 0.00 in    
Sea Level Pressure  
Sea Level Pressure 29.98 in    
Wind  
Wind Speed 13 mph (South)    
Max Wind Speed 22 mph    
Max Gust Speed 28 mph    
Visibility 10 miles    
Events Rain    
T = Trace of Precipitation, MM = Missing Value Source: NWS Daily Summary

Daily Weather History Graph

Daily Weather History Graph

Search for Another Location

Airport or City:

Trip Planner

Search our weather history database for the weather conditions in past years. The results will help you decide how hot, cold, wet, or windy it might be!

Date:

Astronomy

Mar. 10, 2013 Rise Set
Actual Time 7:56 AM EDT 7:41 PM EDT
Civil Twilight 7:30 AM EDT 8:07 PM EDT
Nautical Twilight 7:00 AM EDT 8:37 PM EDT
Astronomical Twilight 6:29 AM EDT 9:08 PM EDT
Moon 6:55 AM EDT (3/10) 6:48 PM EDT (3/10)
Length of Visible Light 12h 36m
Length of Day
11h 44m
Waning Crescent, 2% of the Moon is Illuminated
Mar 10
Waning Crescent
Mar 11
New
Mar 19
First Quarter
Mar 27
Full
Apr 3
Last Quarter

Hourly Weather History & Observations

Time (EDT) Temp. Dew Point Humidity Pressure Visibility Wind Dir Wind Speed Gust Speed Precip Events Conditions
12:54 AM 55.0 °F 30.9 °F 40% 30.07 in 10.0 mi South 11.5 mph - N/A   Clear
1:54 AM 55.0 °F 30.9 °F 40% 30.06 in 10.0 mi South 10.4 mph - N/A   Clear
3:54 AM 53.1 °F 30.9 °F 43% 30.04 in 10.0 mi South 10.4 mph - N/A   Clear
4:54 AM 52.0 °F 30.9 °F 45% 30.02 in 10.0 mi SSE 10.4 mph - N/A   Clear
5:54 AM 53.1 °F 30.9 °F 43% 30.02 in 10.0 mi South 8.1 mph - N/A   Clear
6:54 AM 53.1 °F 30.9 °F 43% 30.03 in 10.0 mi South 10.4 mph - N/A   Clear
7:54 AM 51.8 °F 30.2 °F 44% 30.06 in 10.0 mi South 8.1 mph - N/A   Clear
8:54 AM 54.0 °F 30.9 °F 41% 30.07 in 10.0 mi South 11.5 mph - N/A   Clear
9:54 AM 55.0 °F 32.0 °F 42% 30.06 in 10.0 mi South 11.5 mph - N/A   Mostly Cloudy
10:54 AM 57.0 °F 33.1 °F 40% 30.04 in 10.0 mi SSE 12.7 mph - N/A   Partly Cloudy
11:54 AM 62.1 °F 32.0 °F 32% 30.04 in 10.0 mi South 18.4 mph 26.5 mph N/A   Clear
12:54 PM 64.0 °F 30.9 °F 29% 30.03 in 10.0 mi South 13.8 mph - N/A   Clear
1:54 PM 66.0 °F 30.0 °F 26% 30.02 in 10.0 mi SSW 18.4 mph 27.6 mph N/A   Clear
2:54 PM 66.0 °F 30.0 °F 26% 29.97 in 10.0 mi South 19.6 mph - N/A   Clear
3:54 PM 69.1 °F 32.0 °F 25% 29.94 in 10.0 mi South 17.3 mph 24.2 mph N/A   Clear
4:54 PM 69.1 °F 30.9 °F 24% 29.94 in 10.0 mi South 17.3 mph 24.2 mph N/A   Clear
5:54 PM 66.9 °F 30.0 °F 25% 29.91 in 10.0 mi South 16.1 mph 23.0 mph N/A   Clear
6:54 PM 66.0 °F 32.0 °F 28% 29.89 in 10.0 mi SSE 11.5 mph - N/A   Clear
7:54 PM 64.0 °F 32.0 °F 30% 29.88 in 10.0 mi SSE 8.1 mph - N/A   Clear
8:54 PM 63.0 °F 33.1 °F 33% 29.87 in 10.0 mi SSE 10.4 mph - N/A   Clear
9:54 PM 64.4 °F 33.8 °F 32% 29.88 in 10.0 mi South 11.5 mph - N/A   Clear
10:54 PM 63.0 °F 33.1 °F 33% 29.86 in 10.0 mi South 11.5 mph - N/A   Mostly Cloudy
11:54 PM 62.1 °F 33.1 °F 34% 29.87 in 10.0 mi South 9.2 mph - 0.00 in   Mostly Cloudy
12:54 AM 60.8 °F 33.8 °F 36% 29.86 in 10.0 mi SSE 11.5 mph - N/A Rain Light Rain